User: anonymous   Login
Location: Newark
(41.0400°S, 62.7845°W)
Time: 07:44:28
(UTC+00:00)
Language:

STARLINK-3086 - Orbit

View from above orbital plane
View from above orbital plane
View from above satellite
View from above satellite

Ground track
Ground track

The orbit data is extracted from the following two-line orbital elements,

1 49178U 21082BA  22276.86865790  .00020609  00000-0  17284-2 0  9991
2 49178  70.0014 213.2599 0003295 249.0445 111.0362 14.98364376 59471
Epoch (UTC): 03 October 2022 20:50:52
Eccentricity: 0.0003295
inclination: 70.0014°
perigee height: 569 km
apogee height: 574 km
right ascension of ascending node: 213.2599°
argument of perigee: 249.0445°
revolutions per day: 14.98364376
mean anomaly at epoch: 111.0362°
orbit number at epoch: 5947

The dashed part of the orbit path shows where the satellite is in the earth's shadow,  

DLR